sat.trackr.live / text

‹ back to catalog

STARLINK-31235

NORAD 59038 · 2024-038R

PAYLOAD ACTIVE UNKNOWN

§ Identity

Operator
Country
US
Launch date
2024-02-25
Launch site
AFETR
Launch vehicle
Mass (kg)
RCS (m²)

Purposes: comms

External: N2YO · Heavens-Above · Gunter

§ Orbital elements

Epoch: 2026-09-20T13:44:13.235424Z

Period
94.27 min
Inclination
43.0028°
Eccentricity
0.0000909
Mean motion
15.27594930 rev/d
Perigee alt
482.4 km
Apogee alt
483.6 km
Semi-major
6,861.1 km
B*
-1.1502e-4
RAAN
2.9170°
Arg perigee
264.4678°
Mean anomaly
95.6070°
Rev number
14,460

§ Raw data

STARLINK-312351 59038U 24038R   26263.57237541 -.00003427  00000+0 -11502-3 0  99942 59038  43.0028   2.9170 0000909 264.4678  95.6070 15.27594930144605

JSON: /api/v1/satellites/59038 · /tle

For live sub-satellite position, see the globe view (requires WebGL).

§ Visibility from observer

Set your observer location to see the next 7 days of passes ≥ 10°. The values pass through the URL so the page stays shareable.

No JS? Fill the form by hand. The geolocation button needs JavaScript.